Location: Newark
(5.8900°S, 42.6378°W)
Time: 02:24:35
(UTC+00:00)

Vanguard 1 Rocket - Pass Details

Date: 18 October 2019
Orbit: 651 x 4225 km, 34.3° (Epoch: 14 November)

Event Time Altitude Azimuth Distance (km) Brightness Sun altitude
Rises 12:47:09 0° 283° (WNW) 4,738 10.8 62.8°
Reaches altitude 10° 12:51:09 10° 300° (WNW) 4,269 10.7 63.8°
Maximum altitude 12:59:19 20° 342° (NNW) 4,479 11.0 65.8°
Drops below altitude 10° 13:11:16 10° 22° (NNE) 6,410 11.9 68.7°
Sets 13:20:04 0° 37° (NE) 8,028 12.3 70.9°
